Torna al catalogo

FENGYUN 1C DEB

AttivoSSO
NORAD 29765·DEBRIS·🇨🇳 China

Lanciato May 10, 1999 da Taiyuan Satellite Launch Center

Loading…

Prossimi Passaggi (prossime 24 ore)

TLE

AggiornatoSource: Space-Track

Epoca: Sep 14, 2026, 19:06 UTC

1 29765U 99025BF  26257.79590472  .00000340  00000-0  24585-3 0  9993
2 29765  98.8155 272.1333 0058713  43.3567 130.4529 14.02203596  6103

Traccia FENGYUN 1C DEB in tempo reale con AllMySat

Download on the App Store